Hourly Data Report for October 09, 2014

All times are specified in Local Standard Time (LST). Add 1 hour to adjust for Daylight Saving Time where and when it is observed.

TORONTO INTL A
ONTARIO

43°40'36.000" N
79°37'50.000" W
173.40 m
6158731
71624
YYZ

Download Data

Hourly Data (October 2014)
Hourly Data Report for October 9, 2014
Temp Definition
°C
Dew Point Temp Definition
°C
Rel Hum Definition
%
Wind Dir Definition
10's deg

Wind Spd Definition
km/h
Visibility Definition
km
Stn Press Definition
kPa
Hmdx Definition


Wind Chill Definition


Weather Definition


TIME
00:00 Legend Double Dagger 5.7 2.7 81 24 12 24.1 99.27     LegendNANA
01:00 Legend Double Dagger 5.4 2.4 81 24 10 24.1 99.27     Clear
02:00 Legend Double Dagger 3.8 1.4 84 24 12 24.1 99.28     LegendNANA
03:00 Legend Double Dagger 3.9 1.6 85 25 10 24.1 99.25     LegendNANA
04:00 Legend Double Dagger 4.5 2.0 84 22 9 24.1 99.27     Clear
05:00 Legend Double Dagger 3.8 1.4 84 24 12 24.1 99.30     LegendNANA
06:00 Legend Double Dagger 5.1 1.8 79 23 16 24.1 99.29     LegendNANA
07:00 Legend Double Dagger 5.8 1.7 75 23 16 24.1 99.31     Clear
08:00 Legend Double Dagger 7.6 2.5 70 25 17 24.1 99.32     LegendNANA
09:00 Legend Double Dagger 9.8 2.2 59 26 23 24.1 99.33     LegendNANA
10:00 Legend Double Dagger 11.9 2.9 54 25 32 24.1 99.29     Clear
11:00 Legend Double Dagger 12.8 1.8 47 26 37 24.1 99.31     LegendNANA
12:00 Legend Double Dagger 13.9 3.7 50 28 32 24.1 99.35     LegendNANA
13:00 Legend Double Dagger 13.6 3.7 51 26 42 24.1 99.34     Mostly Cloudy
14:00 Legend Double Dagger 13.2 3.4 51 29 37 24.1 99.38     LegendNANA
15:00 Legend Double Dagger 12.4 2.9 52 28 35 24.1 99.42     LegendNANA
16:00 Legend Double Dagger 12.3 2.8 52 29 32 24.1 99.48     Mostly Cloudy
17:00 Legend Double Dagger 11.1 2.7 56 29 22 24.1 99.53     LegendNANA
18:00 Legend Double Dagger 10.6 2.2 56 29 27 24.1 99.60     LegendNANA
19:00 Legend Double Dagger 10.2 2.8 60 29 15 24.1 99.67     Mostly Cloudy
20:00 Legend Double Dagger 9.8 3.4 64 28 15 24.1 99.68     LegendNANA
21:00 Legend Double Dagger 9.2 3.2 66 28 17 24.1 99.68     LegendNANA
22:00 Legend Double Dagger 8.3 3.4 71 30 12 24.1 99.71     Mainly Clear
23:00 Legend Double Dagger 6.4 2.5 76 26 11 24.1 99.69     LegendNANA

Notes on Data Quality.

Legend

  • E = Estimated
  • M = Missing
  • NA = Not Available
  • ‡ = Partner data that is not subject to review by the National Climate Archives
Date modified: